Tracking 34305 objects as of 6-Jun-2026
HD Live streaming from Space Station
objects crossing your sky now

HELIOS-2A

Track HELIOS-2A now!
10-day predictions
HELIOS-2A is classified as:


NORAD ID: 28492
Int'l Code: 2004-049A
Perigee: 563.3 km
Apogee: 567.7 km
Inclination: 98.3 °
Period: 95.8 minutes
Semi major axis: 6936 km
RCS: Unknown
Launch date: December 18, 2004
Source: France (FR)
Launch site: FRENCH GUIANA (FRGUI)

Optical reconnaissance; independent military intelligence capability for the EU.
Your satellite tracking list
Your tracking list is empty




NASA's NSSDC Master Catalog

Two Line Element Set (TLE):
1 28492U 04049A   26156.91698539  .00001237  00000-0  97670-4 0  9998
2 28492  98.2558 209.8722 0003160  25.4551 334.6827 15.02763901152078
Source of the keplerian elements: McCants